User: anonymous   Login
Location: Cow Canyon Saddle
(34.2291°N, 117.6698°W)
Time: 05:32:53
(UTC-07:00)
Language:

Lacrosse 5 - Orbit

View from above orbital plane
View from above orbital plane
View from above satellite
View from above satellite

Ground track
Ground track

The orbit data is extracted from the following two-line orbital elements,

1 28646U 05016A   16144.89770587 0.00000000  00000-0  00000-0 0    08
2 28646  57.0130 138.8087 0005500 119.5580 240.4420 14.52127832    09
Epoch (UTC): 23 May 2016 21:32:41
Eccentricity: 0.0005500
inclination: 57.0130°
perigee height: 715 km
apogee height: 722 km
right ascension of ascending node: 138.8087°
argument of perigee: 119.5580°
revolutions per day: 14.52127832
mean anomaly at epoch: 240.4420°
orbit number at epoch: 0

The dashed part of the orbit path shows where the satellite is in the earth's shadow,  

DLR